When you browse on this site, cookies collect data to enhance your experience and personalize the content and advertising you see.
Visit our Privacy Policy to learn more. By continuing to use the site, you agree to this use of cookies and data.
  • In Lithuania
  • List of Countries
  • For 7 days
  • Water Temperature
  • Satellite Maps
  • Weather Map
  • Weather Widgets
  • user-avatar
    Login

    Hourly Weather Thunder Bay

    Today, 16 July, Tuesday

    Time Temperature Precipitation Wind Pressure Humidity
    00:00 +18°C° 0.1 mm 2 mps 729 mmHg 93%
    01:00 +18°C° 0 mm 3 mps 729 mmHg 91%
    02:00 +18°C° 0 mm 3 mps 729 mmHg 89%
    03:00 +18°C° 0 mm 3 mps 730 mmHg 87%
    04:00 +18°C° 0 mm 3 mps 730 mmHg 85%
    05:00 +19°C° 0 mm 3 mps 730 mmHg 83%
    06:00 +19°C° 0 mm 4 mps 731 mmHg 82%
    07:00 +21°C° 0 mm 4 mps 731 mmHg 72%
    08:00 +22°C° 0 mm 4 mps 732 mmHg 62%
    09:00 +25°C° 0 mm 4 mps 732 mmHg 52%
    10:00 +26°C° 0 mm 4 mps 733 mmHg 48%
    11:00 +27°C° 0 mm 4 mps 733 mmHg 44%
    12:00 +28°C° 0 mm 3 mps 733 mmHg 40%
    13:00 +28°C° 0 mm 3 mps 733 mmHg 39%
    14:00 +28°C° 0 mm 3 mps 733 mmHg 39%
    15:00 +29°C° 0 mm 3 mps 733 mmHg 38%
    16:00 +28°C° 0 mm 3 mps 733 mmHg 43%
    17:00 +27°C° 0 mm 2 mps 733 mmHg 49%
    18:00 +25°C° 0 mm 2 mps 733 mmHg 54%
    19:00 +23°C° 0 mm 2 mps 734 mmHg 59%
    20:00 +20°C° 0 mm 2 mps 734 mmHg 65%
    21:00 +18°C° 0 mm 2 mps 734 mmHg 70%
    22:00 +17°C° 0 mm 2 mps 734 mmHg 72%
    23:00 +17°C° 0 mm 2 mps 734 mmHg 75%

    Tomorrow, 17 July, Wednesday

    Time Temperature Precipitation Wind Pressure Humidity
    00:00 +16°C° 0 mm 1 mps 735 mmHg 77%
    01:00 +15°C° 0 mm 2 mps 735 mmHg 78%
    02:00 +14°C° 0 mm 2 mps 735 mmHg 79%
    03:00 +14°C° 0 mm 2 mps 736 mmHg 80%
    04:00 +13°C° 0 mm 3 mps 736 mmHg 78%
    05:00 +13°C° 0 mm 3 mps 736 mmHg 76%
    06:00 +13°C° 0 mm 3 mps 736 mmHg 74%
    07:00 +14°C° 0 mm 4 mps 736 mmHg 71%
    08:00 +15°C° 0 mm 4 mps 736 mmHg 68%
    09:00 +17°C° 0 mm 4 mps 736 mmHg 65%
    10:00 +17°C° 0 mm 4 mps 736 mmHg 64%
    11:00 +17°C° 0 mm 4 mps 736 mmHg 64%
    12:00 +17°C° 0 mm 4 mps 736 mmHg 63%
    13:00 +17°C° 0 mm 4 mps 736 mmHg 65%
    14:00 +16°C° 0 mm 3 mps 735 mmHg 67%
    15:00 +14°C° 0 mm 3 mps 735 mmHg 69%
    16:00 +16°C° 0 mm 3 mps 735 mmHg 69%
    17:00 +16°C° 0 mm 3 mps 734 mmHg 68%
    18:00 +16°C° 0 mm 2 mps 734 mmHg 68%
    19:00 +14°C° 0 mm 3 mps 734 mmHg 69%
    20:00 +14°C° 0 mm 3 mps 733 mmHg 71%
    21:00 +13°C° 0 mm 3 mps 733 mmHg 73%
    22:00 +13°C° 0 mm 3 mps 732 mmHg 77%
    23:00 +13°C° 0 mm 3 mps 731 mmHg 82%

    Day after tomorrow, 18 July, Thursday

    Time Temperature Precipitation Wind Pressure Humidity
    00:00 +13°C° 0 mm 3 mps 730 mmHg 86%
    01:00 +13°C° 2.6 mm 3 mps 729 mmHg 90%
    02:00 +13°C° 2.6 mm 3 mps 728 mmHg 95%
    03:00 +13°C° 2.6 mm 3 mps 727 mmHg 99%
    04:00 +14°C° 0.2 mm 3 mps 727 mmHg 99%
    05:00 +15°C° 0.2 mm 2 mps 727 mmHg 99%
    06:00 +16°C° 0.2 mm 1 mps 727 mmHg 99%
    07:00 +18°C° 0 mm 1 mps 726 mmHg 96%
    08:00 +19°C° 0 mm 1 mps 726 mmHg 93%
    09:00 +20°C° 0 mm 1 mps 726 mmHg 90%
    10:00 +22°C° 0 mm 1 mps 726 mmHg 79%
    11:00 +24°C° 0 mm 2 mps 726 mmHg 67%
    12:00 +26°C° 0 mm 3 mps 726 mmHg 56%
    13:00 +27°C° 0 mm 3 mps 726 mmHg 55%
    14:00 +27°C° 0 mm 3 mps 725 mmHg 54%
    15:00 +27°C° 0 mm 4 mps 725 mmHg 54%
    16:00 +26°C° 0 mm 3 mps 725 mmHg 56%
    17:00 +26°C° 0 mm 3 mps 726 mmHg 58%
    18:00 +25°C° 0 mm 2 mps 726 mmHg 60%
    19:00 +23°C° 0 mm 2 mps 726 mmHg 67%
    20:00 +20°C° 0 mm 2 mps 726 mmHg 75%
    21:00 +19°C° 0 mm 1 mps 726 mmHg 83%
    22:00 +19°C° 0 mm 1 mps 726 mmHg 86%
    23:00 +18°C° 0 mm 1 mps 727 mmHg 89%

    19 July, Friday

    Time Temperature Precipitation Wind Pressure Humidity
    00:00 +18°C° 0 mm 1 mps 727 mmHg 92%
    01:00 +16°C° 0 mm 1 mps 727 mmHg 92%
    02:00 +16°C° 0 mm 1 mps 727 mmHg 93%
    03:00 +16°C° 0 mm 1 mps 727 mmHg 93%
    04:00 +18°C° 0 mm 1 mps 727 mmHg 89%
    05:00 +18°C° 0 mm 2 mps 727 mmHg 86%
    06:00 +19°C° 0 mm 2 mps 728 mmHg 83%
    07:00 +21°C° 0 mm 3 mps 728 mmHg 71%
    08:00 +25°C° 0 mm 4 mps 728 mmHg 60%
    09:00 +27°C° 0 mm 5 mps 729 mmHg 48%
    10:00 +28°C° 0 mm 5 mps 729 mmHg 44%
    11:00 +28°C° 0 mm 6 mps 729 mmHg 40%
    12:00 +28°C° 0 mm 6 mps 729 mmHg 36%
    13:00 +28°C° 0 mm 6 mps 729 mmHg 36%
    14:00 +27°C° 0 mm 6 mps 730 mmHg 37%
    15:00 +27°C° 0 mm 5 mps 730 mmHg 38%
    16:00 +27°C° 0 mm 5 mps 730 mmHg 39%
    17:00 +26°C° 0 mm 4 mps 730 mmHg 41%
    18:00 +26°C° 0 mm 4 mps 730 mmHg 43%
    19:00 +23°C° 0 mm 4 mps 731 mmHg 46%
    20:00 +21°C° 0 mm 3 mps 731 mmHg 50%
    21:00 +20°C° 0 mm 3 mps 732 mmHg 54%
    22:00 +20°C° 0 mm 3 mps 732 mmHg 53%
    23:00 +19°C° 0 mm 3 mps 732 mmHg 52%

    20 July, Saturday

    Time Temperature Precipitation Wind Pressure Humidity
    00:00 +19°C° 0 mm 3 mps 732 mmHg 52%
    01:00 +18°C° 0 mm 2 mps 732 mmHg 57%
    02:00 +17°C° 0 mm 2 mps 733 mmHg 62%
    03:00 +16°C° 0 mm 2 mps 733 mmHg 68%
    04:00 +16°C° 0 mm 2 mps 733 mmHg 69%
    05:00 +16°C° 0 mm 2 mps 734 mmHg 71%
    06:00 +17°C° 0 mm 2 mps 734 mmHg 72%
    07:00 +19°C° 0 mm 3 mps 735 mmHg 65%
    08:00 +20°C° 0 mm 3 mps 735 mmHg 59%
    09:00 +22°C° 0 mm 3 mps 735 mmHg 52%
    10:00 +24°C° 0 mm 3 mps 736 mmHg 48%
    11:00 +25°C° 0 mm 2 mps 736 mmHg 45%
    12:00 +26°C° 0 mm 2 mps 736 mmHg 42%
    13:00 +26°C° 0 mm 2 mps 735 mmHg 42%
    14:00 +27°C° 0 mm 2 mps 735 mmHg 42%
    15:00 +27°C° 0 mm 2 mps 735 mmHg 41%
    16:00 +25°C° 0 mm 2 mps 735 mmHg 48%
    17:00 +24°C° 0 mm 2 mps 735 mmHg 54%
    18:00 +21°C° 0 mm 2 mps 734 mmHg 60%
    19:00 +21°C° 0 mm 1 mps 735 mmHg 64%
    20:00 +19°C° 0 mm 1 mps 735 mmHg 68%
    21:00 +18°C° 0 mm 1 mps 735 mmHg 72%
    22:00 +16°C° 0 mm 1 mps 735 mmHg 71%
    23:00 +16°C° 0 mm 1 mps 735 mmHg 69%

    21 July, Sunday

    Time Temperature Precipitation Wind Pressure Humidity
    00:00 +16°C° 0 mm 2 mps 734 mmHg 68%
    01:00 +15°C° 0 mm 2 mps 734 mmHg 72%
    02:00 +14°C° 0 mm 3 mps 734 mmHg 75%
    03:00 +14°C° 0 mm 3 mps 734 mmHg 79%
    04:00 +14°C° 0 mm 4 mps 733 mmHg 80%
    05:00 +13°C° 0 mm 4 mps 732 mmHg 82%
    06:00 +13°C° 0 mm 5 mps 732 mmHg 83%
    07:00 +12°C° 1.4 mm 5 mps 731 mmHg 88%
    08:00 +12°C° 1.4 mm 5 mps 730 mmHg 93%
    09:00 +10°C° 1.4 mm 5 mps 730 mmHg 98%
    10:00 +10°C° 1.4 mm 5 mps 729 mmHg 98%
    11:00 +10°C° 1.4 mm 5 mps 729 mmHg 97%
    12:00 +12°C° 1.4 mm 4 mps 728 mmHg 97%
    13:00 +12°C° 0 mm 4 mps 728 mmHg 97%
    14:00 +12°C° 0 mm 4 mps 727 mmHg 96%
    15:00 +12°C° 0 mm 4 mps 727 mmHg 95%
    16:00 +12°C° 0.1 mm 4 mps 727 mmHg 96%
    17:00 +12°C° 0.1 mm 4 mps 727 mmHg 97%
    18:00 +12°C° 0.1 mm 3 mps 727 mmHg 98%
    19:00 +12°C° 0.3 mm 3 mps 727 mmHg 98%
    20:00 +12°C° 0.3 mm 3 mps 727 mmHg 98%
    21:00 +13°C° 0.3 mm 2 mps 727 mmHg 99%
    22:00 +13°C° 0.5 mm 2 mps 727 mmHg 99%
    23:00 +13°C° 0.5 mm 2 mps 727 mmHg 99%
    Show more